Regional Weather Roundup
Issued by NWS

Home | Current Version | Previous Version | Text Only | Print | Product List | Glossary Off
Versions: 1 2 3 4 5 6 7 8 9 10 11 12 13 14 15 16 17 18 19 20 21 22 23 24 25 26 27 28 29 30 31 32 33 34 35 36 37 38 39 40 41 42 43 44 45 46 47 48 49 50

000
ASUS45 KCYS 230810
RWRWY

WYOMING REGIONAL WEATHER ROUNDUP
NATIONAL WEATHER SERVICE CHEYENNE WY
200 AM MDT SAT MAY 23 2015

NOTE:  "FAIR" INDICATES FEW OR NO CLOUDS BELOW 12,000 FEET
WITH NO SIGNIFICANT WEATHER AND/OR OBSTRUCTIONS TO VISIBILITY.

WYZ001-230900-
YELLOWSTONE NATIONAL PARK

CITY           SKY/WX    TMP DP  RH WIND       PRES   REMARKS
LK YELLOWSTONE   N/A     37  35  92 CALM      30.03F
W YELLOWSTONE  NOT AVBL

$$
WYZ002>013-054>058-071-098>099-230900-
NORTHERN WYOMING

CITY           SKY/WX    TMP DP  RH WIND       PRES   REMARKS
JACKSON        CLOUDY    45  43  93 CALM      29.97F
CODY           CLOUDY    48  48 100 CALM      29.96S
GREYBULL       CLOUDY    55  51  86 CALM      29.92S
WORLAND        CLOUDY    51  49  92 NE3       29.93S
SHERIDAN       FAIR      48  43  82 SE14G22   29.94S
BUFFALO        MOCLDY    46  44  93 S16       29.98F
GILLETTE       CLOUDY    46  42  86 SE17      30.00F
HULETT         FAIR      45  39  81 CALM      30.03S
NEWCASTLE      CLOUDY    45  43  93 SE13G18   30.04S

$$
WYZ014>020-022>026-101>103-230900-
CENTRAL WYOMING

CITY           SKY/WX    TMP DP  RH WIND       PRES   REMARKS
BIG PINEY      LGT RAIN  41  40  96 SW3       30.00S FOG
PINEDALE       LGT RAIN  41  41 100 S3        30.00F
DUBOIS         RAIN      37  36  93 CALM      29.99S
LANDER         CLOUDY    47  42  83 N7        29.94F
RIVERTON       LGT RAIN  48  46  93 MISG      29.95F
CASPER         CLOUDY    41  40  96 CALM      29.97F
DOUGLAS        CLOUDY    45  44  97 SE17      30.00F

$$
WYZ021-027>030-104>119-230900-
SOUTHERN WYOMING

CITY           SKY/WX    TMP DP  RH WIND       PRES   REMARKS
EVANSTON       LGT RAIN  40  38  93 SE5       30.00S
KEMMERER       DRIZZLE   41  39  93 CALM      30.00S
FORT BRIDGER   CLOUDY    41  41 100 S6        30.03S
ROCK SPRINGS   FAIR      40  37  89 S6        30.01S
DIXON          FAIR      41  38  89 CALM      30.06S
RAWLINS        FAIR      43  35  73 NW3       30.00F
SARATOGA       PTSUNNY   41  36  81 SE9       30.03F
LARAMIE        MOCLDY    40  39  97 S10       30.05R WCI  33
CHEYENNE       CLOUDY    43  42  97 S10       30.05S
TORRINGTON     CLOUDY    44  43  96 E9        30.04F
PINE BLUFFS    CLOUDY    43  43 100 CALM      30.05S FOG

$$


USA.gov is the U.S. government's official web portal to all federal, state and local government web resources and services.